This is the latest recevied weather packets stored in our database for station/object HB9HFD-13. If no packets are shown the sender has not sent any weather packets the latest 10 day(s).
| Time | Temp. | Humidity | Pressure | Rain* | Wind** | Luminosity | Snow |
|---|---|---|---|---|---|---|---|
| 1787662422 | 29.44° C | 46% | 1010.9 hPa | 0 mm | - | - | - |
| 1787662123 | 29.44° C | 43% | 1010.9 hPa | 0 mm | - | - | - |
| 1787661822 | 29.44° C | 49% | 1010.9 hPa | 0 mm | - | - | - |
| 1787661522 | 28.89° C | 47% | 1011 hPa | 0 mm | - | - | - |
| 1787661221 | 28.33° C | 49% | 1011 hPa | 0 mm | - | - | - |
| 1787660921 | 27.78° C | 52% | 1011 hPa | 0 mm | - | - | - |
| 1787660621 | 27.22° C | 50% | 1011.1 hPa | 0 mm | - | - | - |
| 1787660321 | 27.22° C | 52% | 1011.1 hPa | 0 mm | - | - | - |
| 1787660020 | 27.22° C | 54% | 1011.2 hPa | 0 mm | - | - | - |
| 1787659720 | 26.67° C | 56% | 1011.2 hPa | 0 mm | - | - | - |
| 1787659420 | 26.67° C | 56% | 1011.2 hPa | 0 mm | - | - | - |
| 1787659119 | 26.67° C | 54% | 1011.2 hPa | 0 mm | - | - | - |
| 1787658819 | 27.22° C | 54% | 1011.1 hPa | 0 mm | - | - | - |
| 1787658519 | 27.22° C | 53% | 1011.2 hPa | 0 mm | - | - | - |
| 1787658219 | 27.78° C | 54% | 1011.2 hPa | 0 mm | - | - | - |
| 1787657918 | 27.22° C | 56% | 1011.2 hPa | 0 mm | - | - | - |
| 1787657618 | 26.67° C | 58% | 1011.3 hPa | 0 mm | - | - | - |
| 1787657318 | 26.67° C | 61% | 1011.3 hPa | 0 mm | - | - | - |
| 1787657018 | 26.67° C | 57% | 1011.4 hPa | 0 mm | - | - | - |
| 1787656717 | 26.67° C | 59% | 1011.3 hPa | 0 mm | - | - | - |
| 1787656417 | 26.11° C | 60% | 1011.4 hPa | 0 mm | - | - | - |
| 1787656117 | 26.11° C | 61% | 1011.3 hPa | 0 mm | - | - | - |
| 1787655817 | 26.67° C | 60% | 1011.4 hPa | 0 mm | - | - | - |
| 1787655516 | 26.67° C | 62% | 1011.4 hPa | 0 mm | - | - | - |
| 1787655216 | 26.11° C | 64% | 1011.4 hPa | 0 mm | - | - | - |
* Rain latest hour (hover to see other rain measurements)
** Current wind speed in m/s (hover to see current wind gust speed)